OPS 5798 DEB, 903

Orbit data source: Space-Track

OPS 5798 DEB, 903 is space debris in LEO originally from a launch on Tue, 06 Oct 1964 UTC launched from the Air Force Western Test Range (AFWTR). Debris objects in space refer to the collection of defunct objects orbiting the Earth. Examples of debris include non-operational satellites, rocket bodies, and fragments generated from explosions, collisions, or faulty payload assembly.

Loading next visibility...
Identifier
903, 1964-063F
Orbit
LEO
Last TLE update
23 hours ago
Origin
Manufacturer
Unknown
Mission
Spacecraft
Bus & Motor
Unknown
Mass
Unknown
Launch date (UTC)
1964-10-06 (61 years ago)
Launch vehicle
Unknown
Launch site
Air Force Western Test Range (AFWTR)
Object type
Payload
Rocket body
Debris
Shape & HBR
Unknown
Radar Cross Section
Small (<0.1 m²)

Expand to show TLE details & history

TLE from 23 hours ago
0 OPS 5798 DEB
1 00903U 64063F   25169.14520993  .00000731  00000-0  69310-3 0  9990
2 00903  90.2186  62.5967 0023737 129.1795  26.0057 13.80085866 24147
Epoch: 2025-06-18T03:29Z
TLE epoch observation values (Epoch: 2025-06-18T03:29:06.137Z)
Latitude
24.72018°
Longitude
-76.21021°
Altitude
951.006 km
Speed
7.386 km/s
True Right ascension
16h 10m 47s
True Declination
24° 35' 36"
Sunlit
Object was in full shadow at epoch
Visualization orbit readout
Latitude
-78.33802°
Longitude
104.76583°
Altitude
1,007.393 km
Speed
7.339 km/s
Apparent Right ascension
02h 09m 27s
Apparent Declination
-61° 32' 23"
Sunlit
Object is in daylight
Visualization observer readout
Local Sidereal Time
13:32:54
Azimuth
191.487° SSW
Elevation
-67.666°
Doppler factor
1
Orbital elements
Apogee altitude
978.008 km
Perigee altitude
943.168 km
Semi-major axis
7,338.725 km
Eccentricity
0.00237
Inclination
90.2186°
RAAN
62.5967°
Arg. of periapsis
129.1795°
True anomaly
Unknown
Mean anomaly
26.0057°
Eccentric anomaly
Unknown
Mean motion
3.45233 °/min
Orbital period
104.28 mins
BSTAR
0.0006931
Loading maneuver chart data...
Loading SW <> Apogee altitude chart data...
Loading historical data...
Loading historical data...
Loading historical data...
Loading historical data...
Loading historical data...
Loading historical data...
Loading historical data...

OPS 5798 DEB Visibility forecast

Observer location: undefined°, undefined°

Span
Click to sort rows by Start time (UTC) header in descending order
Start Az.
Max El. time (UTC)
Max El. Az.
Max El.
End time (UTC)
End Az.
6 mins2025-06-19 03:43:02.620Z47.664° ENE2025-06-19 03:46:02.620Z78.62° E14.02°2025-06-19 03:49:02.620Z109.183° ESE
10 mins2025-06-19 05:26:02.620Z357.764° N2025-06-19 05:31:02.620Z245.968° WSW43.815°2025-06-19 05:36:02.620Z191.438° SSW
10 mins2025-06-19 17:08:02.620Z171.837° S2025-06-19 17:13:02.620Z32.729° NE44.395°2025-06-19 17:18:02.620Z359.508° N
4 mins2025-06-19 18:56:02.620Z267.503° W2025-06-19 18:57:02.620Z277.792° WNW12.787°2025-06-19 19:00:02.620Z308.184° NW
|